Tracking 30509 objects as of 21-May-2025
HD Live streaming from Space Station
objects crossing your sky now

ATLAS 5 CENTAUR DEB

Track ATLAS 5 CENTAUR DEB now!


NORAD ID: 49343
Int'l Code: 2018-079EU
Perigee: 9,350.8 km
Apogee: 36,161.1 km
Inclination: 12.3 °
Period: 824.5 minutes
Semi major axis: 29126 km
RCS: Unknown
Launch date: October 17, 2018
Source: United States (US)
Launch site: AIR FORCE EASTERN TEST RANGE (AFETR)

Note: This is SATELLITE DEBRIS
Your satellite tracking list
Your tracking list is empty




NASA's NSSDC Master Catalog

Two Line Element Set (TLE):
1 49343U 18079EU  25139.14116613 -.00000048  00000-0  00000+0 0  9993
2 49343  12.2557  90.5536 4602325 204.6845 123.5879  1.74646636 23740
Source of the keplerian elements: AFSPC